Campo, CA

6:37 AM PDT on April 28, 2017 (GMT -0700)
Campo

Weather History for KCZZ - April, 2012

Change the Weather History Date:

Wednesday, April 11, 2012

  Actual Average Record
Temperature  
Mean Temperature 50 °F 54 °F  
Max Temperature 56 °F 71 °F 87 °F (1988)
Min Temperature 44 °F 37 °F 23 °F (1963)
Degree Days  
Heating Degree Days 15 11  
Month to date heating degree days 154 128  
Since 1 July heating degree days 2945 2596  
Cooling Degree Days 0 0  
Month to date cooling degree days 0 0  
Year to date cooling degree days 0 0  
Moisture  
Dew Point 42 °F    
Average Humidity 76    
Maximum Humidity 93    
Minimum Humidity 59    
Precipitation  
Precipitation 0.57 in 0.03 in 1.16 in (2016)
Month to date precipitation 0.59 0.47  
Year to date precipitation 4.38 9.37  
Since 1 July precipitation 9.62  
Snow  
Snow 0.00 in - - ()
Month to date snowfall 0.0  
Year to date snowfall 0.0  
Snow Depth 0.00 in    
Sea Level Pressure  
Sea Level Pressure 29.94 in    
Wind  
Wind Speed 13 mph (SW)    
Max Wind Speed 22 mph    
Max Gust Speed 28 mph    
T = Trace of Precipitation, MM = Missing Value Source: NWS Daily Summary

Daily Weather History Graph

Daily Weather History Graph

Search for Another Location

Airport or City:

Trip Planner

Search our weather history database for the weather conditions in past years. The results will help you decide how hot, cold, wet, or windy it might be!

Date:

Astronomy

Apr. 11, 2012 Rise Set
Actual Time 6:20 AM PDT 7:13 PM PDT
Civil Twilight 5:55 AM PDT 7:38 PM PDT
Nautical Twilight 5:25 AM PDT 8:08 PM PDT
Astronomical Twilight 4:55 AM PDT 8:38 PM PDT
Moon 12:00 AM PDT (4/11) 10:25 AM PDT (4/11)
Length of Visible Light 13h 43m
Length of Day
12h 52m
Waning Gibbous, 68% of the Moon is Illuminated
Apr 11
Waning Gibbous
Apr 13
Last Quarter
Apr 21
New
Apr 29
First Quarter
May 5
Full

Hourly Weather History & Observations

Time (PDT) Temp. Windchill Dew Point Humidity Pressure Visibility Wind Dir Wind Speed Gust Speed Precip Events Conditions
12:52 AM 46.9 °F - 39.0 °F 74% 29.81 in - SW 10.4 mph - N/A   Unknown
1:52 AM 46.9 °F - 39.9 °F 77% 29.81 in - WSW 17.3 mph - N/A   Unknown
2:52 AM 45.0 °F 39.3 °F 43.0 °F 93% 29.81 in - SW 11.5 mph - N/A   Unknown
3:52 AM 45.0 °F 38.2 °F 43.0 °F 93% 29.81 in - SW 15.0 mph - N/A   Unknown
4:52 AM 46.0 °F 41.0 °F 43.0 °F 89% 29.82 in - SW 10.4 mph - 0.02 in   Unknown
5:52 AM 46.0 °F 41.4 °F 44.1 °F 93% 29.83 in - SSW 9.2 mph - 0.08 in   Unknown
6:52 AM 45.0 °F 40.1 °F 42.1 °F 90% 29.88 in - SSW 9.2 mph - 0.15 in   Unknown
7:52 AM 45.0 °F 41.2 °F 43.0 °F 93% 29.91 in - SSW 6.9 mph - 0.18 in   Unknown
8:52 AM 46.0 °F 41.0 °F 44.1 °F 93% 29.94 in - West 10.4 mph - 0.14 in   Unknown
9:52 AM 48.0 °F - 45.0 °F 89% 29.96 in - SW 15.0 mph - N/A   Unknown
10:52 AM 48.0 °F - 44.1 °F 86% 29.98 in - SW 13.8 mph 21.9 mph N/A   Unknown
11:52 AM 51.1 °F - 45.0 °F 80% 29.98 in - SW 15.0 mph - N/A   Unknown
12:52 PM 51.1 °F - 45.0 °F 80% 29.99 in - WSW 16.1 mph 24.2 mph N/A   Unknown
1:52 PM 52.0 °F - 44.1 °F 74% 29.98 in - SW 13.8 mph - N/A   Unknown
2:52 PM 55.9 °F - 41.0 °F 57% 29.96 in - SW 19.6 mph - N/A   Unknown
3:52 PM 53.1 °F - 39.9 °F 61% 29.97 in - West 11.5 mph 20.7 mph N/A   Unknown
4:52 PM 51.1 °F - 41.0 °F 68% 29.97 in - West 13.8 mph 18.4 mph N/A   Unknown
5:52 PM 51.1 °F - 41.0 °F 68% 29.97 in - WSW 13.8 mph 20.7 mph N/A   Unknown
6:52 PM 48.9 °F - 37.9 °F 66% 29.99 in - West 11.5 mph - N/A   Unknown
7:52 PM 46.0 °F 40.2 °F 39.9 °F 79% 30.01 in - WSW 12.7 mph - N/A   Unknown
8:52 PM 45.0 °F 39.3 °F 39.9 °F 82% 30.03 in - WSW 11.5 mph - N/A   Unknown
9:52 PM 45.0 °F 39.3 °F 39.9 °F 82% 30.04 in - WSW 11.5 mph - N/A   Unknown
10:52 PM 44.1 °F 37.7 °F 39.9 °F 85% 30.05 in - SW 12.7 mph - N/A   Unknown
11:52 PM 43.0 °F 36.8 °F 39.9 °F 89% 30.04 in - SW 11.5 mph - N/A   Unknown